Regional Weather Roundup
Issued by NWS

Home | Current Version | Previous Version | Text Only | Print | Product List | Glossary On
Versions: 1 2 3 4 5 6 7 8 9 10 11 12 13 14 15 16 17 18 19 20 21 22 23 24 25 26 27 28 29 30 31 32 33 34 35 36 37 38 39 40 41 42 43 44 45 46 47 48 49 50
000
ASMX46 KSGX 301611
RWRMX

MEXICAN WEATHER ROUNDUP
NATIONAL WEATHER SERVICE SAN DIEGO CA
900 AM PDT SAT APR 30 2016

BAJA CALIFORNIA

CITY           SKY/WX    TMP DP  RH WIND       PRES   REMARKS
ENSENADA NW      N/A     58  32  38 SW9       29.88S
LA PAZ         PTSUNNY   72  50  46 S5        29.89F
LORETO         MOSUNNY   73  59  60 CALM      29.83S
MEXICALI       SUNNY     68  39  34 W21       29.70F
S.J. DEL CABO  PTSUNNY   73  61  64 CALM      29.88F
TIJUANA        CLOUDY    55  46  71 S9        29.88S

NORTHWESTERN MEXICO

CITY           SKY/WX    TMP DP  RH WIND       PRES   REMARKS
CHIHUAHUA      MOSUNNY   66  28  24 SW6       29.99S
CULIACAN       PTSUNNY   77  63  61 CALM      29.86F
GUAYMAS        SUNNY     75  52  43 CALM      29.79S
HERMOSILLO     SUNNY     75  43  31 SE6       29.84F
JUAREZ         SUNNY     66  41  39 SW12      29.86S
LOS MOCHIS     PTSUNNY   75  55  50 CALM      29.87S
OBREGON        SUNNY     75  34  22 SE3       29.82S

NORTHEASTERN MEXICO

CITY           SKY/WX    TMP DP  RH WIND       PRES   REMARKS
MATAMOROS      DRIZZLE   79  77  94 N7        29.67  FOG
MONCLOVA       MOSUNNY   81  46  30 CALM      29.85
MONTERREY      MOSUNNY   88  59  37 NW16      29.76R
NUEVO LAREDO   PTSUNNY   81  59  47 N10       29.74R
PIEDRAS NEGRAS MOSUNNY   77  54  44 NW7       29.80
REYNOSA        CLOUDY    79  72  78 N7        29.68S HAZE
SALTILLO       MOSUNNY   81  46  30 SW8       30.03S
TORREON        MOSUNNY   77  28  16 NW5       29.95F
VICTORIA       CLOUDY    79  75  89 NW5       29.69R

WESTERN MEXICO

CITY           SKY/WX    TMP DP  RH WIND       PRES   REMARKS
AGUASCALIENTES PTSUNNY   64  18  16 S5        30.14S
COLIMA           N/A    N/A N/A N/A MISG        N/A
DURANGO        PTSUNNY   63  21  20 SE5       30.10F
GUADALAJARA    CLOUDY    66  34  30 SE3       30.09S
MANZANILLO     CLOUDY    79  72  78 CALM      29.80S
MAZATLAN       PTSUNNY   77  64  65 CALM      29.85F
PTO. VALLARTA  CLOUDY    79  64  61 E3        29.82F
TEPIC          PTSUNNY   73  55  53 CALM      29.97S
URUAPAN        CLOUDY    72  45  37 CALM      30.11R
ZACATECAS      MOSUNNY   66  14  13 W6        30.16S

CENTRAL MEXICO

CITY           SKY/WX    TMP DP  RH WIND       PRES   REMARKS
CUERNAVACA       N/A    N/A N/A N/A MISG        N/A
LEON           CLOUDY    70  28  21 NW6       30.19R
MEXICO CITY    CLOUDY    72  25  17 S6        30.22R
MORELIA        PTSUNNY   72  32  23 CALM      30.13S
POZA RICA      MOSUNNY   91  77  62 CALM      29.60S HX 105
PUEBLA         CLOUDY    63  39  42 CALM      30.25R
QUERETARO      PTSUNNY   70  27  19 W12       30.19S
S. LUIS POTOSI PTSUNNY   73   0   5 W3        30.08S
TAMPICO        PTSUNNY   84  75  74 CALM      29.63R HAZE
TOLUCA         PTSUNNY   61  39  44 S2        30.31R HAZE
VERACRUZ       PTSUNNY   88  72  58 SE7       29.63R

SOUTHERN MEXICO

CITY           SKY/WX    TMP DP  RH WIND       PRES   REMARKS
ACAPULCO       PTSUNNY   81  72  74 SW6       29.83S
B. DE HUATULCO PTSUNNY   82  68  61 W23       29.86F
MINATITLAN     MOSUNNY   91  68  46 S25       29.60F HX  95
OAXACA         PTSUNNY   75  43  31 SE6       30.08F
PTO. ESCONDIDO MOSUNNY   79  72  78 W12       29.92S
TAPACHULA      SUNNY     90  68  48 W8        29.79S
TUX. GUTIERREZ MOSUNNY   90  52  27 SW6       29.85F
VILLAHERMOSA   MOSUNNY   90  79  70 E8        29.68F HX 105
ZIHUATANEJO    PTSUNNY   81  70  69 SW5       29.84R

YUCATAN PENINSULA

CITY           SKY/WX    TMP DP  RH WIND       PRES   REMARKS
CAMPECHE       PTSUNNY   88  75  66 SE12G23   29.68F HX  97
CANCUN         PTSUNNY   86  77  74 SE20      29.83S HX  97
CHETUMAL       CLOUDY    86  79  79 E20       29.78S HX  99
C. DEL CARMEN  CLOUDY    90  75  62 SE20      29.68S HX 100
COZUMEL        PTSUNNY   84  75  74 SE17      29.84R
MERIDA         PTSUNNY   90  72  55 SE22      29.77S HX  96

$$





USA.gov is the U.S. government's official web portal to all federal, state and local government web resources and services.